Skip Page Navigation
NASA JPL Caltech
NASA Logo - Jet Propulsion Laboratory + View the NASA Portal
+ Center for Near-Earth Object Studies
JPL Home Earth Solar System Stars & Galaxies Technology
JPL Solar System Dynamics
BODIES ORBITS EPHEMERIDES TOOLS PHYSICAL DATA DISCOVERY FAQ SITE MAP
IMPORTANT: The SSD Announcement email list is now available. Major changes are coming in the near future, including possible hostname and/or URL changes. To be notified of such changes, subscribe to this email list.

Please visit this page for more details.


JPL Small-Body Database Browser
Search: [ help ]  
59229 (1999 CQ)
Classification: Main-belt Asteroid          SPK-ID: 2059229
Ephemeris | Orbit Diagram | Orbital Elements | Mission Design | Physical Parameters | Discovery Circumstances | Close-Approach Data ]

[ show orbit diagram ]
Orbital Elements at Epoch 2459000.5 (2020-May-31.0) TDB
Reference: JPL 23 (heliocentric ecliptic J2000)
 Element Value Uncertainty (1-sigma)   Units 
e .1849274301486901 3.3974e-08  
a 2.389648954746405 9.2857e-09 au
q 1.947737314587649 8.3454e-08 au
i 2.877622754925262 5.8041e-06 deg
node 26.57685113235707 6.6407e-05 deg
peri 67.1146749814626 6.8476e-05 deg
M 308.9551807714485 1.6095e-05 deg
tp 2459191.814882913482
(2020-Dec-08.31488291)
6.0778e-05 TDB
period 1349.272245249322
3.69
7.8645e-06
2.153e-08
d
yr
n .2668104982278638 1.5552e-09 deg/d
Q 2.831560594905161 1.1003e-08 au
  Orbit Determination Parameters
   # obs. used (total)      804  
   data-arc span      10037 days (27.48 yr)  
   first obs. used      1992-05-02  
   last obs. used      2019-10-25  
   planetary ephem.      DE431  
   SB-pert. ephem.      SB431-N16  
   condition code      0  
   norm. resid. RMS      .5548  
   source      ORB  
   producer      Otto Matic  
   solution date      2020-May-20 11:44:16  

Additional Information
 Earth MOID = .966573 au 
 Jupiter MOID = 2.3558 au 
 T_jup = 3.508 
[ hide covariance matrix ]
Orbital Elements at Epoch 2456777.5 (2014-Apr-30.0) TDB
Reference: JPL 23 (heliocentric ecliptic J2000)
 Element Value Uncertainty (1-sigma)   Units 
e .1840836792952426 3.3953e-08  
q 1.950068972809149 8.3372e-08 au
tp 2456489.837097585077
(2013-Jul-16.33709759)
5.6724e-05 TDB
node 26.67979463361904 6.6225e-05 deg
peri 66.56326153697917 6.8343e-05 deg
i 2.882337867864813 5.8092e-06 deg
  Orbit Determination Parameters
   # obs. used (total)      804  
   data-arc span      10037 days (27.48 yr)  
   first obs. used      1992-05-02  
   last obs. used      2019-10-25  
   planetary ephem.      DE431  
   SB-pert. ephem.      SB431-N16  
   condition code      0  
   norm. resid. RMS      .5548  
   source      ORB  
   producer      Otto Matic  
   solution date      2020-May-20 11:44:16  

Additional Information
 Jupiter MOID = 2.3558 au 
 T_jup = 3.508 
Orbit Covariance (6×6)
  e q tp node peri i
e 1.152812655176651E-15 -2.819669999602706E-15 -8.257608304494162E-13 8.909232866400214E-15 -2.378513359524713E-13 -1.244828617555929E-16
q -2.819669999602706E-15 6.950868068572546E-15 2.049368161313964E-12 -2.209229522931313E-14 5.928494843488896E-13 4.780435430959582E-16
tp -8.257608304494162E-13 2.049368161313964E-12 3.217562410735435E-9 -2.139058609745296E-11 9.629347958444301E-10 4.943027647165454E-14
node 8.909232866400214E-15 -2.209229522931313E-14 -2.139058609745296E-11 4.385787359255384E-9 -4.386049790273518E-9 -9.766519367100072E-12
peri -2.378513359524713E-13 5.928494843488896E-13 9.629347958444301E-10 -4.386049790273518E-9 4.670833974065501E-9 9.809694602546262E-12
i -1.244828617555929E-16 4.780435430959582E-16 4.943027647165454E-14 -9.766519367100072E-12 9.809694602546262E-12 3.374692992987866E-11

Ephemeris | Orbit Diagram | Orbital Elements | Mission Design | Physical Parameters | Discovery Circumstances | Close-Approach Data ]

Physical Parameter Table
Parameter Symbol Value Units Sigma Reference Notes
absolute magnitude H 15.8   n/a MPO436196  
rotation period rot_per 14.04 h n/a LCDB (Rev. 2019-August); Warner et al., 2009 Result based on less than full coverage, so that the period may be wrong by 30 percent or so.
Published Reference List:
[Chang, C.-H.; Lin, H.-W.; Ip, W.-H.; Chen, W.-P.; et al. (2019) ArXiv:1901.08719.]

59229 (1999 CQ)          Discovered 1999-Feb-05 by Kobayashi, T. at Oizumi
Reference: 20030614/Numbers.arcLast Updated: 2004-04-19

[ show close-approach data ]
Alternate Designations
 1999 CQ = 1994 WG12 
Ephemeris | Orbit Diagram | Orbital Elements | Mission Design | Physical Parameters | Discovery Circumstances | Close-Approach Data ]
ABOUT SSD CREDITS/AWARDS PRIVACY/COPYRIGHT GLOSSARY LINKS
FirstGov 2020-May-28 08:59 UT
(server date/time)  
NASA Home Page
Site Manager:   Ryan S. Park
Webmaster  Alan B. Chamberlin